Regional Weather Roundup
Issued by NWS

Home | Current Version | Previous Version | Graphics & Text | Print | Product List | Glossary On
Versions: 1 2 3 4 5 6 7 8 9 10 11 12 13 14 15 16 17 18 19 20 21 22 23 24 25 26 27 28
000
ASUS45 KSLC 220810
RWRUT

UTAH REGIONAL WEATHER ROUNDUP
NATIONAL WEATHER SERVICE SALT LAKE CITY UT
200 AM MDT TUE APR 22 2014

UTZ001>011-023>025-220900-

NORTHERN UTAH

CITY           SKY/WX    TMP DP  RH WIND       PRES   REMARKS
HILL AFB       CLOUDY    63  32  31 SW10      29.88F
LOGAN          MOCLDY    54  40  59 SE6       29.87F
OGDEN          MOCLDY    64  32  30 SW10      29.86F
PROVO AIRPORT  PTCLDY    61  36  39 SE13      29.93F
SALT LAKE CITY MOCLDY    67  32  27 S17       29.85F
VERNAL         MOCLDY    52  34  50 NW6       30.01F
WENDOVER       MOCLDY    57  23  26 W8        29.86S
HEBER CITY     MOCLDY    48  32  53 N3        29.97F
WEST JORDAN    CLEAR     63  37  39 SE18      29.89F

$$

UTZ012>022-026-027-220900-

SOUTHERN UTAH

CITY           SKY/WX    TMP DP  RH WIND       PRES   REMARKS
BRYCE CANYON   PTCLDY    39  29  67 W5        30.17F
CEDAR CITY     MOCLDY    60  27  28 S9        30.01F
MILFORD        MOCLDY    59  29  31 SW12      29.96F
MOAB/CYNLANDS  CLEAR     60  29  30 CALM      29.96F
PRICE          MOCLDY    54  32  43 NE5       30.04F
ST GEORGE      PTSUNNY   70  30  23 SE12      29.90F
KANAB            N/A     52  30  43 N5        30.08S

$$

REGIONAL REPORTS     COLORADO/ARIZONA

CITY           SKY/WX    TMP DP  RH WIND       PRES   REMARKS
CRAIG, CO      PTCLDY    39  32  76 CALM      30.10F
GRAND JUNCTION PTCLDY    57  30  35 SE16      30.03F
RIFLE          CLEAR     45  31  58 CALM      30.11F
MONTROSE       CLEAR     52  29  41 SE8       30.13F
CORTEZ         CLEAR     39  27  62 NE3       30.14S
PAGE, AZ       PTCLDY    69  31  24 SW6       29.98S
GRAND CANYON   PTCLDY    38  28  67 CALM      30.17F
KINGMAN        MOCLDY    69  28  21 S10       29.96F
FLAGSTAFF      PTCLDY    41  27  57 CALM      30.19F

$$

REGIONAL REPORTS    NEVADA/IDAHO/WYOMING

CITY           SKY/WX    TMP DP  RH WIND       PRES   REMARKS
LAS VEGAS, NV  CLOUDY    80  21  11 S13       29.79F
ELY            MOCLDY    53  22  29 SW12      29.97F
ELKO           CLOUDY    49  25  39 CALM      29.89F
POCATELLO, ID  CLOUDY    56  39  53 SE5       29.93F
BURLEY         CLOUDY    53  40  61 SW5       29.84F
EVANSTON, WY     N/A     49  26  41 S7        30.02F
ROCK SPRINGS   MOCLDY    51  24  34 S7        30.04F

$$



USA.gov is the U.S. government's official web portal to all federal, state and local government web resources and services.